| time (UTC) | temp C | wind direction | speed KPH | gust KPH | rain 1hr cm | rain 24hr cm | rain mn cm | humidity % | barometer mb |
| 20260509055106 | 7 | 180 | 4.8 | 11.3 | 0.00 | 0.00 | 0.00 | 73 | 946.7 |
| 20260509054555 | 7 | 158 | 4.8 | 11.3 | 0.00 | 0.00 | 0.00 | 73 | 946.7 |
| 20260509054309 | 7 | 113 | 8.0 | 11.3 | 0.00 | 0.00 | 0.00 | 73 | 946.3 |
| 20260509053800 | 7 | 135 | 1.6 | 6.4 | 0.00 | 0.00 | 0.00 | 71 | 946.2 |
| 20260509053025 | 7 | 158 | 4.8 | 6.4 | 0.00 | 0.00 | 0.00 | 71 | 946.4 |
| 20260509052515 | 7 | 158 | 3.2 | 6.4 | 0.00 | 0.00 | 0.00 | 70 | 946.5 |
| 20260509052005 | 7 | 113 | 3.2 | 6.4 | 0.00 | 0.00 | 0.00 | 75 | 946.1 |
| 20260509051455 | 7 | 113 | 3.2 | 6.4 | 0.00 | 0.00 | 0.00 | 72 | 946.2 |
| 20260509050945 | 8 | 45 | 1.6 | 14.5 | 0.00 | 0.00 | 0.00 | 72 | 946.1 |
| 20260509050435 | 8 | 68 | 4.8 | 17.7 | 0.00 | 0.00 | 0.00 | 73 | 946.1 |
| 20260509045924 | 8 | 23 | 12.9 | 17.7 | 0.00 | 0.00 | 0.00 | 74 | 946.1 |
| 20260509045415 | 8 | 45 | 6.4 | 20.9 | 0.00 | 0.00 | 0.00 | 75 | 945.9 |
| 20260509044905 | 8 | 23 | 17.7 | 20.9 | 0.00 | 0.00 | 0.00 | 75 | 946.0 |
| 20260509044613 | 8 | 23 | 16.1 | 20.9 | 0.00 | 0.00 | 0.00 | 77 | 945.9 |
| 20260509043844 | 7 | 0 | 12.9 | 20.9 | 0.00 | 0.00 | 0.00 | 72 | 945.9 |
| 20260509043334 | 8 | 0 | 14.5 | 17.7 | 0.00 | 0.00 | 0.00 | 72 | 945.8 |
| 20260509042824 | 8 | 23 | 12.9 | 17.7 | 0.00 | 0.00 | 0.00 | 71 | 945.6 |
| 20260509042314 | 7 | 0 | 16.1 | 17.7 | 0.00 | 0.00 | 0.00 | 70 | 945.6 |
| 20260509041804 | 7 | 0 | 12.9 | 14.5 | 0.00 | 0.00 | 0.00 | 71 | 945.6 |
| 20260509041254 | 7 | 23 | 8.0 | 12.9 | 0.00 | 0.00 | 0.00 | 72 | 945.2 |
| 20260509041002 | 7 | 338 | 8.0 | 12.9 | 0.00 | 0.00 | 0.00 | 72 | 945.5 |
| 20260509040457 | 7 | 315 | 9.7 | 17.7 | 0.00 | 0.00 | 0.00 | 71 | 945.4 |
| 20260509035723 | 7 | 315 | 12.9 | 17.7 | 0.00 | 0.00 | 0.00 | 70 | 945.1 |
| 20260509035213 | 7 | 315 | 12.9 | 14.5 | 0.00 | 0.00 | 0.00 | 70 | 945.2 |
| 20260509034703 | 8 | 293 | 6.4 | 11.3 | 0.00 | 0.00 | 0.00 | 70 | 945.2 |
| 20260509034153 | 8 | 248 | 3.2 | 6.4 | 0.00 | 0.00 | 0.00 | 64 | 944.8 |
| 20260509033643 | 8 | 113 | 3.2 | 12.9 | 0.00 | 0.00 | 0.00 | 74 | 944.9 |
| 20260509033133 | 8 | 180 | 4.8 | 12.9 | 0.00 | 0.00 | 0.00 | 71 | 945.1 |
| 20260509032622 | 7 | 90 | 1.6 | 11.3 | 0.00 | 0.00 | 0.00 | 74 | 945.0 |
| 20260509032112 | 7 | 45 | 6.4 | 11.3 | 0.00 | 0.00 | 0.00 | 74 | 945.0 |
| 20260509031602 | 7 | 90 | 3.2 | 6.4 | 0.00 | 0.00 | 0.00 | 71 | 945.0 |
| 20260509031052 | 7 | 90 | 3.2 | 6.4 | 0.00 | 0.00 | 0.00 | 70 | 945.3 |
| 20260509030542 | 7 | 113 | 3.2 | 6.4 | 0.00 | 0.00 | 0.00 | 71 | 945.3 |
| 20260509030032 | 7 | 113 | 3.2 | 11.3 | 0.00 | 0.00 | 0.00 | 69 | 945.3 |
| 20260509025523 | 7 | 158 | 4.8 | 12.9 | 0.00 | 0.00 | 0.00 | 71 | 945.3 |
| 20260509025011 | 7 | 158 | 8.0 | 17.7 | 0.00 | 0.00 | 0.00 | 68 | 945.2 |
| 20260509024501 | 7 | 225 | 9.7 | 17.7 | 0.00 | 0.00 | 0.00 | 71 | 945.1 |
| 20260509023951 | 7 | 180 | 6.4 | 25.7 | 0.00 | 0.00 | 0.00 | 73 | 944.6 |
| 20260509023441 | 7 | 135 | 12.9 | 25.7 | 0.00 | 0.00 | 0.00 | 71 | 944.6 |
| 20260509022931 | 7 | 135 | 11.3 | 24.1 | 0.00 | 0.00 | 0.00 | 72 | 944.1 |
| 20260509022640 | 7 | 113 | 12.9 | 20.9 | 0.00 | 0.00 | 0.00 | 70 | 943.9 |
| 20260509021911 | 7 | 135 | 9.7 | 20.9 | 0.00 | 0.00 | 0.00 | 71 | 943.8 |
| 20260509021401 | 7 | 180 | 9.7 | 22.5 | 0.00 | 0.00 | 0.00 | 68 | 943.8 |
| 20260509020850 | 7 | 113 | 6.4 | 24.1 | 0.00 | 0.00 | 0.00 | 67 | 943.7 |
| 20260509020604 | 7 | 113 | 17.7 | 27.4 | 0.00 | 0.00 | 0.00 | 64 | 943.4 |
| 20260509015830 | 8 | 113 | 17.7 | 27.4 | 0.00 | 0.00 | 0.00 | 62 | 943.6 |
| 20260509015321 | 8 | 135 | 19.3 | 25.7 | 0.00 | 0.00 | 0.00 | 59 | 943.6 |
| 20260509014810 | 9 | 135 | 11.3 | 14.5 | 0.00 | 0.00 | 0.00 | 56 | 943.4 |
| 20260509014300 | 9 | 135 | 9.7 | 14.5 | 0.00 | 0.00 | 0.00 | 57 | 942.8 |
| 20260509013750 | 9 | 158 | 6.4 | 14.5 | 0.00 | 0.00 | 0.00 | 58 | 942.5 |
| 20260509013240 | 9 | 135 | 11.3 | 14.5 | 0.00 | 0.00 | 0.00 | 55 | 942.3 |
| 20260509012730 | 9 | 135 | 8.0 | 12.9 | 0.00 | 0.00 | 0.00 | 56 | 942.4 |
| 20260509012219 | 9 | 113 | 6.4 | 12.9 | 0.00 | 0.00 | 0.00 | 56 | 942.3 |
| 20260509011709 | 9 | 135 | 8.0 | 14.5 | 0.00 | 0.00 | 0.00 | 55 | 942.3 |
| 20260509011200 | 9 | 158 | 8.0 | 17.7 | 0.00 | 0.00 | 0.00 | 55 | 942.1 |
| 20260509010911 | 9 | 135 | 11.3 | 17.7 | 0.00 | 0.00 | 0.00 | 55 | 941.6 |
| 20260509010139 | 9 | 135 | 11.3 | 17.7 | 0.00 | 0.00 | 0.00 | 56 | 941.6 |
| 20260509005851 | 10 | 113 | 11.3 | 20.9 | 0.00 | 0.00 | 0.00 | 54 | 941.4 |
| 20260509005119 | 9 | 113 | 12.9 | 20.9 | 0.00 | 0.00 | 0.00 | 54 | 941.4 |
| 20260509004609 | 10 | 135 | 11.3 | 25.7 | 0.00 | 0.00 | 0.00 | 54 | 941.2 |
| 20260509004059 | 10 | 90 | 6.4 | 25.7 | 0.00 | 0.00 | 0.00 | 53 | 941.2 |
| 20260509003549 | 10 | 113 | 17.7 | 24.1 | 0.00 | 0.00 | 0.00 | 52 | 941.1 |
| 20260509003039 | 11 | 113 | 3.2 | 11.3 | 0.00 | 0.00 | 0.00 | 52 | 940.5 |
| 20260509002528 | 11 | 113 | 3.2 | 11.3 | 0.00 | 0.00 | 0.00 | 50 | 940.3 |
| 20260509002019 | 11 | 68 | 6.4 | 12.9 | 0.00 | 0.00 | 0.00 | 48 | 940.2 |
| 20260509001509 | 11 | 90 | 3.2 | 14.5 | 0.00 | 0.00 | 0.00 | 50 | 939.8 |
| 20260509000959 | 11 | 90 | 9.7 | 17.7 | 0.00 | 0.00 | 0.00 | 49 | 939.8 |
| 20260509000449 | 11 | 90 | 9.7 | 17.7 | 0.00 | 0.00 | 0.00 | 48 | 939.5 |
| 20260508235937 | 12 | 68 | 8.0 | 14.5 | 0.00 | 0.00 | 0.00 | 47 | 939.4 |
| 20260508235429 | 12 | 113 | 6.4 | 12.9 | 0.00 | 0.00 | 0.00 | 46 | 939.0 |
| 20260508234918 | 12 | 90 | 6.4 | 17.7 | 0.00 | 0.00 | 0.00 | 50 | 938.9 |
| 20260508234408 | 12 | 90 | 4.8 | 17.7 | 0.00 | 0.00 | 0.00 | 47 | 938.5 |
| 20260508233858 | 13 | 68 | 8.0 | 17.7 | 0.00 | 0.00 | 0.00 | 45 | 938.2 |
| 20260508233347 | 13 | 0 | 12.9 | 17.7 | 0.00 | 0.00 | 0.00 | 49 | 938.3 |
| 20260508232837 | 12 | 68 | 6.4 | 17.7 | 0.00 | 0.00 | 0.00 | 45 | 938.1 |
| 20260508232327 | 12 | 68 | 4.8 | 11.3 | 0.00 | 0.00 | 0.00 | 44 | 938.1 |
| 20260508231817 | 12 | 90 | 3.2 | 17.7 | 0.00 | 0.00 | 0.00 | 44 | 938.0 |
| 20260508231307 | 13 | 68 | 12.9 | 24.1 | 0.00 | 0.00 | 0.00 | 44 | 937.7 |
| 20260508230757 | 13 | 45 | 9.7 | 24.1 | 0.00 | 0.00 | 0.00 | 47 | 937.7 |
| 20260508230729 | 13 | 68 | 14.5 | 24.1 | 0.00 | 0.00 | 0.00 | 46 | 937.6 |
| 20260508225737 | 13 | 68 | 19.3 | 25.7 | 0.00 | 0.00 | 0.00 | 42 | 937.4 |
| 20260508225226 | 13 | 45 | 17.7 | 25.7 | 0.00 | 0.00 | 0.00 | 47 | 937.4 |
| 20260508224716 | 13 | 23 | 20.9 | 29.0 | 0.00 | 0.00 | 0.00 | 51 | 937.2 |
| 20260508224427 | 13 | 23 | 19.3 | 29.0 | 0.00 | 0.00 | 0.00 | 44 | 937.3 |
| 20260508223656 | 13 | 23 | 12.9 | 29.0 | 0.00 | 0.00 | 0.00 | 44 | 937.3 |
| 20260508223412 | 13 | 68 | 12.9 | 29.0 | 0.00 | 0.00 | 0.00 | 43 | 937.3 |
| 20260508222636 | 13 | 45 | 12.9 | 22.5 | 0.00 | 0.00 | 0.00 | 41 | 937.2 |
| 20260508222126 | 13 | 45 | 9.7 | 20.9 | 0.00 | 0.00 | 0.00 | 41 | 937.3 |
| 20260508221836 | 13 | 113 | 9.7 | 17.7 | 0.00 | 0.00 | 0.00 | 41 | 937.2 |
| 20260508221547 | 13 | 113 | 6.4 | 17.7 | 0.00 | 0.00 | 0.00 | 41 | 937.2 |
| 20260508220602 | 13 | 68 | 12.9 | 17.7 | 0.00 | 0.00 | 0.00 | 41 | 936.9 |
| 20260508220046 | 13 | 90 | 8.0 | 17.7 | 0.00 | 0.00 | 0.00 | 41 | 936.9 |
| 20260508215535 | 13 | 90 | 9.7 | 17.7 | 0.00 | 0.00 | 0.00 | 41 | 936.8 |
| 20260508215024 | 13 | 90 | 4.8 | 14.5 | 0.00 | 0.00 | 0.00 | 41 | 936.7 |
| 20260508214515 | 13 | 113 | 8.0 | 22.5 | 0.00 | 0.00 | 0.00 | 41 | 936.4 |
| 20260508214005 | 14 | 113 | 6.4 | 22.5 | 0.00 | 0.00 | 0.00 | 40 | 936.5 |
| 20260508213455 | 14 | 68 | 9.7 | 14.5 | 0.00 | 0.00 | 0.00 | 39 | 936.6 |
| 20260508212945 | 14 | 68 | 8.0 | 20.9 | 0.00 | 0.00 | 0.00 | 39 | 936.5 |
| 20260508212435 | 14 | 90 | 6.4 | 20.9 | 0.00 | 0.00 | 0.00 | 43 | 936.5 |
| 20260508211924 | 15 | 45 | 6.4 | 25.7 | 0.00 | 0.00 | 0.00 | 40 | 936.4 |
| 20260508211414 | 15 | 45 | 9.7 | 25.7 | 0.00 | 0.00 | 0.00 | 40 | 936.5 |
| 20260508210904 | 15 | 45 | 6.4 | 22.5 | 0.00 | 0.00 | 0.00 | 40 | 936.5 |
| 20260508210354 | 15 | 68 | 11.3 | 20.9 | 0.00 | 0.00 | 0.00 | 38 | 936.5 |
| 20260508205844 | 15 | 45 | 6.4 | 27.4 | 0.00 | 0.00 | 0.00 | 39 | 936.6 |
| 20260508205334 | 15 | 45 | 19.3 | 27.4 | 0.00 | 0.00 | 0.00 | 38 | 936.7 |
| 20260508205047 | 15 | 68 | 20.9 | 27.4 | 0.00 | 0.00 | 0.00 | 38 | 936.6 |
| 20260508204313 | 15 | 68 | 17.7 | 25.7 | 0.00 | 0.00 | 0.00 | 39 | 936.7 |
| 20260508203804 | 15 | 45 | 20.9 | 27.4 | 0.00 | 0.00 | 0.00 | 37 | 936.4 |
| 20260508203516 | 15 | 45 | 11.3 | 27.4 | 0.00 | 0.00 | 0.00 | 37 | 936.5 |
| 20260508202743 | 15 | 45 | 22.5 | 27.4 | 0.00 | 0.00 | 0.00 | 36 | 936.4 |
| 20260508202233 | 15 | 23 | 16.1 | 24.1 | 0.00 | 0.00 | 0.00 | 35 | 936.7 |
| 20260508201724 | 16 | 68 | 16.1 | 27.4 | 0.00 | 0.00 | 0.00 | 37 | 936.6 |
| 20260508201213 | 16 | 45 | 16.1 | 27.4 | 0.00 | 0.00 | 0.00 | 35 | 936.5 |
| 20260508200703 | 15 | 45 | 17.7 | 25.7 | 0.00 | 0.00 | 0.00 | 35 | 936.4 |
| 20260508200414 | 16 | 45 | 17.7 | 25.7 | 0.00 | 0.00 | 0.00 | 37 | 936.4 |
| 20260508195643 | 16 | 45 | 9.7 | 25.7 | 0.00 | 0.00 | 0.00 | 36 | 936.3 |
| 20260508195133 | 16 | 45 | 17.7 | 25.7 | 0.00 | 0.00 | 0.00 | 35 | 936.2 |
| 20260508194622 | 16 | 45 | 12.9 | 25.7 | 0.00 | 0.00 | 0.00 | 37 | 936.3 |
| 20260508194112 | 16 | 45 | 14.5 | 25.7 | 0.00 | 0.00 | 0.00 | 34 | 936.2 |
| 20260508193602 | 16 | 45 | 12.9 | 22.5 | 0.00 | 0.00 | 0.00 | 36 | 936.4 |
| 20260508193052 | 16 | 45 | 9.7 | 17.7 | 0.00 | 0.00 | 0.00 | 35 | 936.4 |
| 20260508192542 | 16 | 113 | 9.7 | 22.5 | 0.00 | 0.00 | 0.00 | 36 | 936.3 |
| 20260508192031 | 16 | 45 | 8.0 | 22.5 | 0.00 | 0.00 | 0.00 | 36 | 936.2 |
| 20260508191522 | 16 | 68 | 8.0 | 17.7 | 0.00 | 0.00 | 0.00 | 35 | 936.5 |
| 20260508191011 | 16 | 23 | 9.7 | 17.7 | 0.00 | 0.00 | 0.00 | 35 | 936.3 |
| 20260508190724 | 16 | 68 | 11.3 | 22.5 | 0.00 | 0.00 | 0.00 | 35 | 936.5 |
| 20260508185952 | 16 | 45 | 9.7 | 22.5 | 0.00 | 0.00 | 0.00 | 36 | 936.4 |
| 20260508185441 | 16 | 68 | 12.9 | 22.5 | 0.00 | 0.00 | 0.00 | 35 | 936.2 |
| 20260508185158 | 16 | 45 | 14.5 | 27.4 | 0.00 | 0.00 | 0.00 | 34 | 936.3 |
| 20260508184421 | 16 | 45 | 14.5 | 27.4 | 0.00 | 0.00 | 0.00 | 36 | 936.6 |
| 20260508184140 | 16 | 68 | 11.3 | 25.7 | 0.00 | 0.00 | 0.00 | 37 | 936.6 |
| 20260508183401 | 16 | 68 | 17.7 | 22.5 | 0.00 | 0.00 | 0.00 | 34 | 936.5 |
| 20260508182850 | 16 | 68 | 14.5 | 22.5 | 0.00 | 0.00 | 0.00 | 34 | 936.5 |
| 20260508182340 | 16 | 68 | 12.9 | 27.4 | 0.00 | 0.00 | 0.00 | 34 | 936.7 |
| 20260508181832 | 16 | 90 | 12.9 | 27.4 | 0.00 | 0.00 | 0.00 | 34 | 936.9 |
| 20260508181320 | 16 | 113 | 12.9 | 33.8 | 0.00 | 0.00 | 0.00 | 36 | 936.8 |
| 20260508180810 | 16 | 113 | 11.3 | 33.8 | 0.00 | 0.00 | 0.00 | 33 | 936.8 |
| 20260508180300 | 16 | 90 | 11.3 | 27.4 | 0.00 | 0.00 | 0.00 | 35 | 937.0 |
| 20260508180213 | 16 | 45 | 19.3 | 27.4 | 0.00 | 0.00 | 0.00 | 35 | 936.9 |
| 20260508180159 | 16 | 68 | 9.7 | 32.2 | 0.00 | 0.00 | 0.00 | 35 | 937.1 |
| 20260508174729 | 16 | 45 | 12.9 | 32.2 | 0.00 | 0.00 | 0.00 | 34 | 937.2 |
| 20260508174440 | 16 | 90 | 17.7 | 25.7 | 0.00 | 0.00 | 0.00 | 36 | 937.3 |
| 20260508173709 | 16 | 45 | 17.7 | 27.4 | 0.00 | 0.00 | 0.00 | 34 | 937.3 |
| 20260508173159 | 16 | 68 | 12.9 | 27.4 | 0.00 | 0.00 | 0.00 | 35 | 937.4 |
| 20260508172649 | 16 | 45 | 16.1 | 27.4 | 0.00 | 0.00 | 0.00 | 35 | 937.7 |
| 20260508172139 | 16 | 90 | 17.7 | 27.4 | 0.00 | 0.00 | 0.00 | 35 | 937.6 |
| 20260508171629 | 16 | 45 | 17.7 | 27.4 | 0.00 | 0.00 | 0.00 | 37 | 937.5 |
| 20260508171119 | 16 | 45 | 12.9 | 27.4 | 0.00 | 0.00 | 0.00 | 37 | 937.8 |
| 20260508170832 | 15 | 45 | 12.9 | 27.4 | 0.00 | 0.00 | 0.00 | 34 | 938.0 |
| 20260508170539 | 15 | 45 | 20.9 | 27.4 | 0.00 | 0.00 | 0.00 | 37 | 938.1 |
| 20260508165549 | 15 | 45 | 17.7 | 22.5 | 0.00 | 0.00 | 0.00 | 35 | 938.2 |
| 20260508165039 | 16 | 45 | 12.9 | 22.5 | 0.00 | 0.00 | 0.00 | 38 | 938.4 |
| 20260508164752 | 15 | 45 | 17.7 | 24.1 | 0.00 | 0.00 | 0.00 | 37 | 938.5 |
| 20260508164242 | 15 | 23 | 17.7 | 24.1 | 0.00 | 0.00 | 0.00 | 34 | 938.8 |
| 20260508163508 | 15 | 45 | 19.3 | 24.1 | 0.00 | 0.00 | 0.00 | 35 | 938.8 |
| 20260508162958 | 15 | 23 | 20.9 | 24.1 | 0.00 | 0.00 | 0.00 | 37 | 938.8 |
| 20260508162448 | 15 | 45 | 16.1 | 24.1 | 0.00 | 0.00 | 0.00 | 34 | 939.0 |
| 20260508161938 | 16 | 45 | 17.7 | 24.1 | 0.00 | 0.00 | 0.00 | 38 | 938.9 |
| 20260508161648 | 15 | 45 | 16.1 | 17.7 | 0.00 | 0.00 | 0.00 | 33 | 939.2 |
| 20260508160918 | 16 | 0 | 1.6 | 6.4 | 0.00 | 0.00 | 0.00 | 38 | 939.1 |
| 20260508160634 | 15 | 315 | 4.8 | 6.4 | 0.00 | 0.00 | 0.00 | 35 | 939.3 |
| 20260508155858 | 15 | 315 | 3.2 | 6.4 | 0.00 | 0.00 | 0.00 | 33 | 939.6 |
| 20260508155347 | 15 | 225 | 0.0 | 3.2 | 0.00 | 0.00 | 0.00 | 39 | 939.6 |
| 20260508154837 | 15 | 225 | 0.0 | 6.4 | 0.00 | 0.00 | 0.00 | 36 | 939.7 |
| 20260508154327 | 13 | 225 | 3.2 | 6.4 | 0.00 | 0.00 | 0.00 | 36 | 939.7 |
| 20260508153817 | 13 | 225 | 3.2 | 6.4 | 0.00 | 0.00 | 0.00 | 38 | 939.8 |
| 20260508153307 | 13 | 248 | 3.2 | 6.4 | 0.00 | 0.00 | 0.00 | 37 | 939.7 |
| 20260508152757 | 13 | 293 | 3.2 | 6.4 | 0.00 | 0.00 | 0.00 | 37 | 940.0 |
| 20260508152248 | 13 | 270 | 3.2 | 3.2 | 0.00 | 0.00 | 0.00 | 40 | 940.1 |
| 20260508152224 | 13 | 248 | 3.2 | 3.2 | 0.00 | 0.00 | 0.00 | 37 | 940.1 |
| 20260508151226 | 13 | 315 | 3.2 | 3.2 | 0.00 | 0.00 | 0.00 | 35 | 940.1 |
| 20260508150716 | 14 | 338 | 3.2 | 6.4 | 0.00 | 0.00 | 0.00 | 32 | 940.3 |
| 20260508150432 | 14 | 0 | 1.6 | 6.4 | 0.00 | 0.00 | 0.00 | 39 | 940.3 |
| 20260508145657 | 13 | 23 | 3.2 | 6.4 | 0.00 | 0.00 | 0.00 | 45 | 940.4 |
| 20260508145146 | 13 | 338 | 1.6 | 6.4 | 0.00 | 0.00 | 0.00 | 46 | 940.5 |
| 20260508144636 | 12 | 338 | 3.2 | 6.4 | 0.00 | 0.00 | 0.00 | 42 | 940.4 |
| 20260508144126 | 12 | 293 | 3.2 | 3.2 | 0.00 | 0.00 | 0.00 | 45 | 940.7 |
| 20260508143615 | 13 | 0 | 3.2 | 6.4 | 0.00 | 0.00 | 0.00 | 43 | 941.0 |
| 20260508143106 | 14 | 45 | 1.6 | 6.4 | 0.00 | 0.00 | 0.00 | 38 | 940.9 |
| 20260508142555 | 13 | 23 | 1.6 | 6.4 | 0.00 | 0.00 | 0.00 | 41 | 941.1 |
| 20260508142045 | 14 | 68 | 0.0 | 3.2 | 0.00 | 0.00 | 0.00 | 46 | 940.8 |
| 20260508141535 | 14 | 90 | 0.0 | 3.2 | 0.00 | 0.00 | 0.00 | 44 | 941.1 |
| 20260508141025 | 12 | 23 | 0.0 | 3.2 | 0.00 | 0.00 | 0.00 | 49 | 941.0 |
| 20260508140514 | 11 | 23 | 1.6 | 3.2 | 0.00 | 0.00 | 0.00 | 46 | 941.0 |
| 20260508140005 | 11 | 0 | 1.6 | 3.2 | 0.00 | 0.00 | 0.00 | 46 | 940.8 |
| 20260508135455 | 11 | 0 | 3.2 | 3.2 | 0.00 | 0.00 | 0.00 | 47 | 941.1 |
| 20260508135435 | 11 | 0 | 1.6 | 3.2 | 0.00 | 0.00 | 0.00 | 46 | 941.2 |
| 20260508134654 | 11 | 45 | 1.6 | 3.2 | 0.00 | 0.00 | 0.00 | 47 | 941.1 |
| 20260508134144 | 10 | 135 | 3.2 | 6.4 | 0.00 | 0.00 | 0.00 | 51 | 941.2 |
| 20260508133414 | 10 | 23 | 3.2 | 6.4 | 0.00 | 0.00 | 0.00 | 52 | 941.0 |
| 20260508132904 | 10 | 23 | 3.2 | 12.9 | 0.00 | 0.00 | 0.00 | 52 | 941.3 |
| 20260508132354 | 8 | 0 | 4.8 | 12.9 | 0.00 | 0.00 | 0.00 | 55 | 941.3 |
| 20260508131844 | 8 | 0 | 6.4 | 9.7 | 0.00 | 0.00 | 0.00 | 61 | 941.3 |
| 20260508131334 | 8 | 68 | 4.8 | 9.7 | 0.00 | 0.00 | 0.00 | 58 | 941.6 |
| 20260508130824 | 7 | 23 | 6.4 | 9.7 | 0.00 | 0.00 | 0.00 | 61 | 941.4 |
| 20260508130314 | 7 | 23 | 4.8 | 9.7 | 0.00 | 0.00 | 0.00 | 59 | 941.2 |
| 20260508130023 | 7 | 45 | 6.4 | 6.4 | 0.00 | 0.00 | 0.00 | 59 | 941.3 |
| 20260508125253 | 9 | 68 | 3.2 | 6.4 | 0.00 | 0.00 | 0.00 | 56 | 941.5 |
| 20260508124743 | 7 | 68 | 3.2 | 6.4 | 0.00 | 0.00 | 0.00 | 60 | 941.5 |
| 20260508124236 | 7 | 0 | 1.6 | 6.4 | 0.00 | 0.00 | 0.00 | 65 | 941.7 |
| 20260508123723 | 6 | 45 | 4.8 | 9.7 | 0.00 | 0.00 | 0.00 | 68 | 941.5 |
| 20260508123213 | 6 | 45 | 4.8 | 11.3 | 0.00 | 0.00 | 0.00 | 68 | 941.5 |
| 20260508122703 | 6 | 45 | 3.2 | 11.3 | 0.00 | 0.00 | 0.00 | 68 | 941.6 |
| 20260508122153 | 6 | 0 | 3.2 | 9.7 | 0.00 | 0.00 | 0.00 | 68 | 941.5 |
| 20260508121643 | 6 | 338 | 3.2 | 9.7 | 0.00 | 0.00 | 0.00 | 70 | 941.3 |
| 20260508121133 | 6 | 23 | 3.2 | 9.7 | 0.00 | 0.00 | 0.00 | 68 | 941.6 |
| 20260508120623 | 6 | 0 | 4.8 | 11.3 | 0.00 | 0.00 | 0.00 | 69 | 941.7 |
| 20260508120113 | 5 | 23 | 4.8 | 12.9 | 0.00 | 0.00 | 0.00 | 67 | 941.5 |
| 20260508115825 | 5 | 0 | 6.4 | 12.9 | 0.00 | 0.00 | 0.00 | 72 | 941.8 |
| 20260508115052 | 5 | 23 | 4.8 | 12.9 | 0.00 | 0.00 | 0.00 | 73 | 941.4 |
| 20260508114804 | 6 | 0 | 4.8 | 6.4 | 0.00 | 0.00 | 0.00 | 70 | 941.5 |
| 20260508114031 | 6 | 113 | 0.0 | 6.4 | 0.00 | 0.00 | 0.00 | 73 | 941.3 |
| 20260508113521 | 5 | 90 | 3.2 | 6.4 | 0.00 | 0.00 | 0.00 | 74 | 941.4 |
| 20260508113011 | 5 | 113 | 4.8 | 11.3 | 0.00 | 0.00 | 0.00 | 76 | 941.5 |
| 20260508112502 | 4 | 68 | 4.8 | 11.3 | 0.00 | 0.00 | 0.00 | 78 | 941.4 |
| 20260508112213 | 4 | 90 | 3.2 | 6.4 | 0.00 | 0.00 | 0.00 | 78 | 941.2 |
| 20260508111441 | 4 | 90 | 3.2 | 6.4 | 0.00 | 0.00 | 0.00 | 78 | 941.0 |
| 20260508110931 | 4 | 23 | 3.2 | 14.5 | 0.00 | 0.00 | 0.00 | 74 | 941.0 |
| 20260508110653 | 5 | 23 | 9.7 | 14.5 | 0.00 | 0.00 | 0.00 | 74 | 940.9 |
| 20260508105911 | 5 | 23 | 4.8 | 11.3 | 0.00 | 0.00 | 0.00 | 70 | 940.9 |
| 20260508105623 | 5 | 0 | 6.4 | 11.3 | 0.00 | 0.00 | 0.00 | 71 | 940.8 |
| 20260508104851 | 3 | 90 | 3.2 | 6.4 | 0.00 | 0.00 | 0.00 | 81 | 941.0 |
| 20260508104340 | 3 | 90 | 6.4 | 6.4 | 0.00 | 0.00 | 0.00 | 79 | 940.9 |
| 20260508103830 | 3 | 90 | 3.2 | 6.4 | 0.00 | 0.00 | 0.00 | 80 | 941.0 |
| 20260508103547 | 3 | 90 | 3.2 | 6.4 | 0.00 | 0.00 | 0.00 | 81 | 940.8 |
| 20260508102810 | 3 | 90 | 4.8 | 6.4 | 0.00 | 0.00 | 0.00 | 82 | 940.7 |
| 20260508102301 | 3 | 90 | 4.8 | 11.3 | 0.00 | 0.00 | 0.00 | 80 | 940.7 |
| 20260508101750 | 3 | 113 | 8.0 | 11.3 | 0.00 | 0.00 | 0.00 | 82 | 940.8 |
| 20260508101240 | 4 | 135 | 8.0 | 11.3 | 0.00 | 0.00 | 0.00 | 81 | 940.7 |
| 20260508100729 | 4 | 68 | 4.8 | 9.7 | 0.00 | 0.00 | 0.00 | 81 | 940.5 |
| 20260508100219 | 4 | 113 | 3.2 | 9.7 | 0.00 | 0.00 | 0.00 | 81 | 940.6 |
| 20260508095710 | 4 | 90 | 6.4 | 6.4 | 0.00 | 0.00 | 0.00 | 79 | 940.3 |
| 20260508095200 | 5 | 158 | 3.2 | 11.3 | 0.00 | 0.00 | 0.00 | 74 | 940.2 |
| 20260508094918 | 6 | 338 | 6.4 | 11.3 | 0.00 | 0.00 | 0.00 | 72 | 940.0 |
| 20260508094402 | 6 | 315 | 8.0 | 12.9 | 0.00 | 0.00 | 0.00 | 65 | 940.0 |
| 20260508093629 | 6 | 23 | 6.4 | 12.9 | 0.00 | 0.00 | 0.00 | 65 | 939.9 |
| 20260508093119 | 6 | 0 | 9.7 | 12.9 | 0.00 | 0.00 | 0.00 | 65 | 939.7 |
| 20260508092608 | 6 | 338 | 9.7 | 12.9 | 0.00 | 0.00 | 0.00 | 68 | 939.7 |
| 20260508092320 | 6 | 338 | 6.4 | 9.7 | 0.00 | 0.00 | 0.00 | 67 | 939.8 |
| 20260508091549 | 6 | 23 | 1.6 | 9.7 | 0.00 | 0.00 | 0.00 | 70 | 940.0 |
| 20260508091039 | 5 | 338 | 4.8 | 9.7 | 0.00 | 0.00 | 0.00 | 78 | 939.7 |
| 20260508090752 | 4 | 113 | 6.4 | 9.7 | 0.00 | 0.00 | 0.00 | 73 | 939.8 |
| 20260508090018 | 5 | 90 | 1.6 | 6.4 | 0.00 | 0.00 | 0.00 | 78 | 939.9 |
| 20260508085508 | 5 | 90 | 3.2 | 6.4 | 0.00 | 0.00 | 0.00 | 67 | 939.8 |
| 20260508084958 | 4 | 90 | 4.8 | 6.4 | 0.00 | 0.00 | 0.00 | 68 | 939.6 |
| 20260508084447 | 4 | 135 | 3.2 | 6.4 | 0.00 | 0.00 | 0.00 | 73 | 939.5 |
| 20260508083938 | 4 | 135 | 3.2 | 6.4 | 0.00 | 0.00 | 0.00 | 72 | 939.7 |
| 20260508083428 | 4 | 113 | 4.8 | 6.4 | 0.00 | 0.00 | 0.00 | 69 | 939.6 |
| 20260508082917 | 5 | 113 | 3.2 | 6.4 | 0.00 | 0.00 | 0.00 | 67 | 939.4 |
| 20260508082636 | 5 | 113 | 1.6 | 3.2 | 0.00 | 0.00 | 0.00 | 71 | 939.3 |
| 20260508081857 | 5 | 113 | 0.0 | 6.4 | 0.00 | 0.00 | 0.00 | 72 | 939.6 |
| 20260508081347 | 5 | 113 | 3.2 | 6.4 | 0.00 | 0.00 | 0.00 | 65 | 939.5 |
| 20260508080837 | 5 | 113 | 4.8 | 6.4 | 0.00 | 0.00 | 0.00 | 71 | 939.8 |
| 20260508080554 | 5 | 135 | 4.8 | 9.7 | 0.00 | 0.00 | 0.00 | 74 | 939.7 |
| 20260508075817 | 6 | 135 | 3.2 | 9.7 | 0.00 | 0.00 | 0.00 | 75 | 939.5 |
| 20260508075309 | 5 | 135 | 3.2 | 9.7 | 0.00 | 0.00 | 0.00 | 71 | 939.6 |
| 20260508074756 | 6 | 158 | 6.4 | 9.7 | 0.00 | 0.00 | 0.00 | 68 | 939.4 |
| 20260508074246 | 5 | 135 | 4.8 | 6.4 | 0.00 | 0.00 | 0.00 | 70 | 939.5 |
| 20260508073736 | 6 | 135 | 3.2 | 6.4 | 0.00 | 0.00 | 0.00 | 64 | 939.6 |
| 20260508073226 | 6 | 158 | 3.2 | 6.4 | 0.00 | 0.00 | 0.00 | 66 | 939.6 |
| 20260508072946 | 6 | 180 | 3.2 | 9.7 | 0.00 | 0.00 | 0.00 | 66 | 939.4 |
| 20260508072206 | 6 | 180 | 4.8 | 9.7 | 0.00 | 0.00 | 0.00 | 51 | 939.5 |
| 20260508071656 | 6 | 113 | 0.0 | 3.2 | 0.00 | 0.00 | 0.00 | 68 | 939.6 |
| 20260508071145 | 6 | 113 | 3.2 | 6.4 | 0.00 | 0.00 | 0.00 | 62 | 939.3 |
| 20260508070635 | 6 | 113 | 1.6 | 6.4 | 0.00 | 0.00 | 0.00 | 65 | 939.4 |
| 20260508070126 | 6 | 113 | 3.2 | 6.4 | 0.00 | 0.00 | 0.00 | 69 | 938.9 |
| 20260508065616 | 6 | 113 | 4.8 | 6.4 | 0.00 | 0.00 | 0.00 | 66 | 939.2 |
| 20260508065106 | 6 | 135 | 3.2 | 6.4 | 0.00 | 0.00 | 0.00 | 70 | 939.3 |
| 20260508064555 | 7 | 135 | 3.2 | 3.2 | 0.00 | 0.00 | 0.00 | 67 | 939.2 |
| 20260508064045 | 7 | 158 | 0.0 | 3.2 | 0.00 | 0.00 | 0.00 | 58 | 939.3 |
| 20260508063800 | 7 | 158 | 0.0 | 3.2 | 0.00 | 0.00 | 0.00 | 59 | 939.4 |
| 20260508063246 | 7 | 158 | 3.2 | 6.4 | 0.00 | 0.00 | 0.00 | 59 | 939.6 |
| 20260508062514 | 8 | 158 | 3.2 | 14.5 | 0.00 | 0.00 | 0.00 | 63 | 939.4 |
| 20260508062005 | 8 | 158 | 3.2 | 14.5 | 0.00 | 0.00 | 0.00 | 60 | 939.5 |
| 20260508061455 | 8 | 203 | 12.9 | 14.5 | 0.00 | 0.00 | 0.00 | 57 | 939.4 |
| 20260508061203 | 8 | 225 | 12.9 | 14.5 | 0.00 | 0.00 | 0.00 | 60 | 939.4 |
| 20260508060434 | 7 | 180 | 4.8 | 6.4 | 0.00 | 0.00 | 0.00 | 66 | 939.3 |
| 20260508055925 | 7 | 113 | 3.2 | 6.4 | 0.00 | 0.00 | 0.00 | 71 | 939.2 |
| 20260508055414 | 7 | 113 | 3.2 | 3.2 | 0.00 | 0.00 | 0.00 | 66 | 939.3 |